DW4360 Weather Reports


Display with metric or nautical units.
time (UTC)temp
F
wind
direction
speed
MPH
gust
MPH
rain 1hr
in
rain 24hr
in
rain mn
in
humidity
%
barometer
mb
20260902085855 61 225 0.0 0.0 0.00 0.00 0.00 79 1009.7
20260902084853 62 225 0.0 0.0 0.00 0.00 0.00 79 1009.8
20260902083852 62 225 0.0 0.0 0.00 0.00 0.00 79 1009.8
20260902082851 62 225 0.0 0.0 0.00 0.00 0.00 79 1009.8
20260902081850 62 227 0.0 0.0 0.00 0.00 0.00 79 1009.8
20260902080849 62 227 0.0 0.0 0.00 0.00 0.00 78 1009.7
20260902075848 62 215 0.0 0.0 0.00 0.00 0.00 78 1009.6
20260902073846 63 215 3.0 0.0 0.00 0.00 0.00 77 1009.9
20260902072845 63 219 0.0 0.0 0.00 0.00 0.00 76 1010.0
20260902071844 63 273 3.0 0.0 0.00 0.00 0.00 75 1010.0
20260902070844 63 214 0.0 0.0 0.00 0.00 0.00 75 1010.2
20260902065842 63 213 0.0 0.0 0.00 0.00 0.00 75 1010.2
20260902064841 63 213 0.0 0.0 0.00 0.00 0.00 75 1010.3
20260902063840 63 208 0.0 0.0 0.00 0.00 0.00 74 1010.3
20260902062839 63 194 0.0 0.0 0.00 0.00 0.00 73 1010.3
20260902061838 63 190 0.0 0.0 0.00 0.00 0.00 73 1010.1
20260902060837 64 209 0.0 0.0 0.00 0.00 0.00 73 1010.3
20260902054835 64 177 0.0 0.0 0.00 0.00 0.00 73 1010.5
20260902053834 64 212 0.0 0.0 0.00 0.00 0.00 73 1010.5
20260902052833 64 209 0.0 0.0 0.00 0.00 0.00 73 1010.5
20260902051832 64 210 0.0 0.0 0.00 0.00 0.00 73 1010.6
20260902050832 64 236 0.0 0.0 0.00 0.00 0.00 73 1010.5
20260902044829 64 238 4.0 0.0 0.00 0.00 0.00 72 1010.6
20260902043828 64 256 0.0 0.0 0.00 0.00 0.00 72 1010.6
20260902042827 65 216 0.0 0.0 0.00 0.00 0.00 72 1010.4
20260902041826 65 253 0.0 0.0 0.00 0.00 0.00 71 1010.4
20260902035824 65 207 0.0 0.0 0.00 0.00 0.00 71 1010.4
20260902034823 65 199 0.0 0.0 0.00 0.00 0.00 70 1010.4
20260902033822 65 245 0.0 0.0 0.00 0.00 0.00 70 1010.3
20260902032821 66 232 2.0 0.0 0.00 0.00 0.00 69 1010.2
20260902031820 66 248 0.0 0.0 0.00 0.00 0.00 69 1010.2
20260902030819 66 254 0.0 0.0 0.00 0.00 0.00 69 1010.2
20260902025818 66 234 0.0 0.0 0.00 0.00 0.00 68 1010.1
20260902024817 66 201 0.0 0.0 0.00 0.00 0.00 68 1010.1
20260902023815 67 241 0.0 0.0 0.00 0.00 0.00 67 1010.1
20260902022815 67 236 0.0 0.0 0.00 0.00 0.00 67 1009.9
20260902021814 67 248 0.0 0.0 0.00 0.00 0.00 66 1009.9
20260902020813 68 205 0.0 0.0 0.00 0.00 0.00 65 1009.9
20260902015812 68 217 0.0 0.0 0.00 0.00 0.00 66 1009.9
20260902012809 68 246 2.0 0.0 0.00 0.00 0.00 63 1009.7
20260902011807 68 241 2.0 0.0 0.00 0.00 0.00 64 1009.7
20260902010807 68 246 3.0 0.0 0.00 0.00 0.00 63 1009.7
20260902004804 69 233 0.0 0.0 0.00 0.00 0.00 62 1009.5
20260902003803 70 207 4.0 0.0 0.00 0.00 0.00 62 1009.6
20260902002802 71 250 0.0 0.0 0.00 0.00 0.00 60 1009.4
20260902001802 72 256 0.0 0.0 0.00 0.00 0.00 58 1009.5
20260902000801 74 209 0.0 0.0 0.00 0.00 0.00 56 1009.4
20260901235759 74 59 0.0 0.0 0.00 0.00 0.00 55 1009.3
20260901232757 71 225 4.0 0.0 0.00 0.00 0.00 60 1009.6
20260901231756 72 239 1.0 0.0 0.00 0.00 0.00 61 1009.7
20260901230754 71 227 0.0 0.0 0.00 0.00 0.00 62 1009.7
20260901225754 71 242 0.0 0.0 0.00 0.00 0.00 62 1009.9
20260901224752 71 258 0.0 0.0 0.00 0.00 0.00 62 1009.9
20260901223751 71 223 0.0 0.0 0.00 0.00 0.00 64 1009.9
20260901222750 70 105 0.0 0.0 0.00 0.00 0.00 65 1009.9
20260901221750 69 210 0.0 0.0 0.00 0.00 0.00 68 1009.9
20260901220748 68 233 0.0 0.0 0.00 0.00 0.00 66 1009.9
20260901215747 68 242 5.0 0.0 0.00 0.00 0.00 67 1009.9
20260901214746 68 254 0.0 0.0 0.00 0.00 0.00 68 1009.9
20260901213746 68 254 0.0 0.0 0.00 0.00 0.00 68 1009.9
20260901212744 68 254 0.0 0.0 0.00 0.00 0.00 68 1010.0
20260901211743 68 254 0.0 0.0 0.00 0.00 0.00 67 1010.0
20260901210742 68 265 0.0 0.0 0.00 0.00 0.00 67 1010.0
20260901205741 68 331 0.0 0.0 0.00 0.00 0.00 68 1010.0
20260901204740 68 240 0.0 0.0 0.00 0.00 0.00 68 1010.0
20260901203739 68 239 0.0 0.0 0.00 0.00 0.00 67 1010.1
20260901202738 68 209 0.0 0.0 0.00 0.00 0.00 69 1010.1
20260901201737 68 250 0.0 0.0 0.00 0.00 0.00 70 1010.2
20260901200736 68 231 0.0 0.0 0.00 0.00 0.00 69 1010.2
20260901195735 68 223 0.0 0.0 0.00 0.00 0.00 70 1010.1
20260901194734 68 223 0.0 0.0 0.00 0.00 0.00 69 1010.2
20260901193733 69 195 0.0 0.0 0.00 0.00 0.00 68 1010.3
20260901192732 68 194 0.0 0.0 0.00 0.00 0.00 69 1010.5
20260901190730 67 248 0.0 0.0 0.00 0.00 0.00 73 1010.8
20260901185729 66 248 0.0 0.0 0.00 0.00 0.00 73 1010.7
20260901184728 66 194 2.0 0.0 0.00 0.00 0.00 74 1010.9
20260901183727 65 208 3.0 0.0 0.00 0.00 0.00 78 1010.9
20260901182726 64 216 0.0 0.0 0.00 0.00 0.00 78 1010.9
20260901181725 64 229 0.0 0.0 0.00 0.00 0.00 80 1011.0
20260901175723 62 229 0.0 0.0 0.00 0.00 0.00 83 1011.1
20260901174722 62 228 0.0 0.0 0.00 0.00 0.00 85 1011.2
20260901172720 61 227 0.0 0.0 0.00 0.00 0.00 86 1011.1
20260901171719 61 227 0.0 0.0 0.00 0.00 0.00 87 1011.0
20260901170718 60 244 5.0 0.0 0.00 0.00 0.00 88 1011.0
20260901165717 60 253 0.0 0.0 0.00 0.00 0.00 89 1010.9
20260901164716 60 251 0.0 0.0 0.00 0.00 0.00 88 1010.9
20260901163715 60 238 0.0 0.0 0.00 0.00 0.00 88 1010.9
20260901162714 60 223 0.0 0.0 0.00 0.00 0.00 87 1011.0
20260901161713 60 223 0.0 0.0 0.00 0.00 0.00 87 1010.9
20260901160712 60 223 0.0 0.0 0.00 0.00 0.00 86 1010.9
20260901155711 60 252 0.0 0.0 0.00 0.00 0.00 86 1010.9
20260901154710 60 253 2.0 0.0 0.00 0.00 0.00 84 1010.8
20260901153708 61 232 0.0 0.0 0.00 0.00 0.00 83 1010.9
20260901152708 61 248 2.0 0.0 0.00 0.00 0.00 83 1010.8
20260901151707 61 237 0.0 0.0 0.00 0.00 0.00 82 1010.7
20260901150705 60 237 1.0 0.0 0.00 0.00 0.00 82 1010.6
20260901144704 60 235 0.0 0.0 0.00 0.00 0.00 81 1010.4
20260901143703 60 235 0.0 0.0 0.00 0.00 0.00 81 1010.4
20260901142702 60 235 0.0 0.0 0.00 0.00 0.00 81 1010.4
20260901141700 60 235 0.0 0.0 0.00 0.00 0.00 81 1010.4
20260901140659 60 235 0.0 0.0 0.00 0.00 0.00 82 1010.3
20260901135658 60 235 0.0 0.0 0.00 0.00 0.00 82 1010.2
20260901134658 60 235 0.0 0.0 0.00 0.00 0.00 82 1010.2
20260901133657 60 219 0.0 0.0 0.00 0.00 0.00 82 1010.1
20260901132655 60 219 0.0 0.0 0.00 0.00 0.00 82 1010.2
20260901131655 60 219 0.0 0.0 0.00 0.00 0.00 82 1010.1
20260901130653 60 219 0.0 0.0 0.00 0.00 0.00 82 1010.1
20260901125653 60 219 0.0 0.0 0.00 0.00 0.00 82 1010.0
20260901124652 60 219 0.0 0.0 0.00 0.00 0.00 82 1010.0
20260901123651 60 219 0.0 0.0 0.00 0.00 0.00 82 1009.9
20260901122649 60 219 0.0 0.0 0.00 0.00 0.00 83 1010.0
20260901120648 59 219 0.0 0.0 0.00 0.00 0.00 83 1010.0
20260901114645 59 219 0.0 0.0 0.00 0.00 0.00 83 1010.0
20260901113644 59 219 0.0 0.0 0.00 0.00 0.00 83 1010.0
20260901112643 59 219 0.0 0.0 0.00 0.00 0.00 83 1010.0
20260901111643 59 219 0.0 0.0 0.00 0.00 0.00 83 1009.9
20260901110641 59 219 0.0 0.0 0.00 0.00 0.00 82 1009.8
20260901105640 60 219 0.0 0.0 0.00 0.00 0.00 82 1009.8
20260901104639 60 236 0.0 0.0 0.00 0.00 0.00 82 1009.7
20260901103638 60 207 0.0 0.0 0.00 0.00 0.00 81 1009.7
20260901102637 60 207 0.0 0.0 0.00 0.00 0.00 81 1009.6
20260901101636 60 239 2.0 0.0 0.00 0.00 0.00 81 1009.6
20260901100635 60 241 0.0 0.0 0.00 0.00 0.00 81 1009.6
20260901095634 60 248 2.0 0.0 0.00 0.00 0.00 80 1009.6
20260901094633 61 244 0.0 0.0 0.00 0.00 0.00 80 1009.5
20260901093632 61 245 0.0 0.0 0.00 0.00 0.00 79 1009.5
20260901091630 61 208 1.0 0.0 0.00 0.00 0.00 79 1009.2